Time,TemperatureF,DewpointF,PressureIn,WindDirection,WindDirectionDegrees,WindSpeedMPH,WindSpeedGustMPH,Humidity,HourlyPrecipIn,Conditions,Clouds,dailyrainin,SoftwareType,DateUTC
2013-06-09 00:02:00,69.0,62.0,29.95,ESE,113,3.0,7.0,79,0.00,,,0.00,,2013-06-09 04:02:00,
2013-06-09 00:12:00,69.0,62.0,29.95,ESE,113,3.0,7.0,79,0.00,,,0.00,,2013-06-09 04:12:00,
2013-06-09 00:22:00,69.0,63.0,29.95,East,101,3.0,7.0,80,0.00,,,0.00,,2013-06-09 04:22:00,
2013-06-09 00:32:00,69.0,63.0,29.96,ESE,113,4.0,6.0,81,0.00,,,0.00,,2013-06-09 04:32:00,
2013-06-09 00:42:00,69.0,63.0,29.96,ESE,113,4.0,6.0,81,0.00,,,0.00,,2013-06-09 04:42:00,
2013-06-09 00:53:00,69.0,63.0,29.96,ESE,114,3.0,6.0,81,0.00,,,0.00,,2013-06-09 04:53:00,
2013-06-09 01:02:00,69.0,63.0,29.96,ESE,111,1.0,3.0,82,0.00,,,0.00,,2013-06-09 05:02:00,
2013-06-09 01:12:00,69.0,63.0,29.96,ESE,111,1.0,3.0,82,0.00,,,0.00,,2013-06-09 05:12:00,
2013-06-09 01:22:00,69.0,64.0,29.97,SE,134,2.0,5.0,83,0.00,,,0.00,,2013-06-09 05:22:00,
2013-06-09 01:32:00,68.0,63.0,29.96,SE,129,2.0,4.0,83,0.00,,,0.00,,2013-06-09 05:32:00,
2013-06-09 01:42:00,68.0,63.0,29.96,SE,129,2.0,4.0,83,0.00,,,0.00,,2013-06-09 05:42:00,
2013-06-09 01:52:00,68.0,63.0,29.96,SE,126,1.0,3.0,84,0.00,,,0.00,,2013-06-09 05:52:00,
2013-06-09 02:02:00,68.0,63.0,29.96,SE,138,1.0,4.0,85,0.00,,,0.00,,2013-06-09 06:02:00,
2013-06-09 02:12:00,68.0,63.0,29.96,SE,138,1.0,4.0,85,0.00,,,0.00,,2013-06-09 06:12:00,
2013-06-09 02:22:00,68.0,63.0,29.96,SE,126,3.0,4.0,85,0.00,,,0.00,,2013-06-09 06:22:00,
2013-06-09 02:32:00,68.0,64.0,29.95,ESE,109,2.0,3.0,86,0.00,,,0.00,,2013-06-09 06:32:00,
2013-06-09 02:42:00,68.0,64.0,29.95,ESE,109,2.0,3.0,86,0.00,,,0.00,,2013-06-09 06:42:00,
2013-06-09 02:52:00,67.0,63.0,29.95,ESE,102,2.0,5.0,86,0.00,,,0.00,,2013-06-09 06:52:00,
2013-06-09 03:02:00,67.0,63.0,29.94,ESE,107,1.0,2.0,87,0.00,,,0.00,,2013-06-09 07:02:00,
2013-06-09 03:12:00,67.0,63.0,29.94,ESE,107,1.0,2.0,87,0.00,,,0.00,,2013-06-09 07:12:00,
2013-06-09 03:22:00,66.0,62.0,29.94,SE,130,2.0,5.0,88,0.00,,,0.00,,2013-06-09 07:22:00,
2013-06-09 03:32:00,66.0,62.0,29.94,SE,126,2.0,3.0,88,0.00,,,0.00,,2013-06-09 07:32:00,
2013-06-09 03:42:00,66.0,62.0,29.94,SE,126,2.0,3.0,88,0.00,,,0.00,,2013-06-09 07:42:00,
2013-06-09 03:52:00,66.0,63.0,29.94,SE,127,3.0,5.0,89,0.00,,,0.00,,2013-06-09 07:52:00,
2013-06-09 04:02:00,65.0,62.0,29.95,SE,128,2.0,3.0,90,0.00,,,0.00,,2013-06-09 08:02:00,
2013-06-09 04:12:00,65.0,62.0,29.95,SE,128,2.0,3.0,90,0.00,,,0.00,,2013-06-09 08:12:00,
2013-06-09 04:22:00,65.0,62.0,29.95,SE,128,2.0,3.0,91,0.00,,,0.00,,2013-06-09 08:22:00,
2013-06-09 04:32:00,65.0,62.0,29.95,SE,128,2.0,3.0,91,0.00,,,0.00,,2013-06-09 08:32:00,
2013-06-09 04:42:00,65.0,62.0,29.95,SE,128,2.0,3.0,91,0.00,,,0.00,,2013-06-09 08:42:00,
2013-06-09 04:53:00,65.0,63.0,29.95,SE,128,2.0,4.0,92,0.00,,,0.00,,2013-06-09 08:53:00,
2013-06-09 05:02:00,64.0,62.0,29.95,SE,131,2.0,3.0,93,0.00,,,0.00,,2013-06-09 09:02:00,
2013-06-09 05:12:00,64.0,62.0,29.95,SE,131,2.0,3.0,93,0.00,,,0.00,,2013-06-09 09:12:00,
2013-06-09 05:22:00,64.0,62.0,29.96,SE,130,2.0,4.0,93,0.00,,,0.00,,2013-06-09 09:22:00,
2013-06-09 05:33:00,64.0,62.0,29.96,SE,128,2.0,4.0,93,0.00,,,0.00,,2013-06-09 09:33:00,
2013-06-09 05:43:00,64.0,62.0,29.96,SE,128,2.0,4.0,93,0.00,,,0.00,,2013-06-09 09:43:00,
2013-06-09 05:52:00,64.0,62.0,29.96,SE,146,2.0,4.0,92,0.00,,,0.00,,2013-06-09 09:52:00,
2013-06-09 06:03:00,65.0,63.0,29.96,SE,132,3.0,5.0,92,0.00,,,0.00,,2013-06-09 10:03:00,
2013-06-09 06:12:00,65.0,63.0,29.96,SE,132,3.0,5.0,92,0.00,,,0.00,,2013-06-09 10:12:00,
2013-06-09 06:23:00,64.0,62.0,29.96,SE,136,3.0,4.0,92,0.00,,,0.00,,2013-06-09 10:23:00,
2013-06-09 06:32:00,65.0,63.0,29.96,SE,142,3.0,3.0,92,0.00,,,0.00,,2013-06-09 10:32:00,
2013-06-09 06:43:00,65.0,63.0,29.96,SE,142,3.0,3.0,92,0.00,,,0.00,,2013-06-09 10:43:00,
2013-06-09 06:52:00,65.0,63.0,29.96,SE,142,3.0,5.0,92,0.00,,,0.00,,2013-06-09 10:52:00,
2013-06-09 07:02:00,65.0,63.0,29.96,SSE,155,2.0,4.0,92,0.00,,,0.00,,2013-06-09 11:02:00,
2013-06-09 07:12:00,65.0,63.0,29.96,SSE,155,2.0,4.0,92,0.00,,,0.00,,2013-06-09 11:12:00,
2013-06-09 07:22:00,65.0,63.0,29.97,SE,138,2.0,4.0,92,0.00,,,0.00,,2013-06-09 11:22:00,
2013-06-09 07:32:00,65.0,62.0,29.96,SE,130,2.0,4.0,91,0.00,,,0.00,,2013-06-09 11:32:00,
2013-06-09 07:42:00,65.0,62.0,29.96,SE,130,2.0,4.0,91,0.00,,,0.00,,2013-06-09 11:42:00,
2013-06-09 07:52:00,65.0,62.0,29.96,SE,130,3.0,4.0,91,0.00,,,0.00,,2013-06-09 11:52:00,
2013-06-09 08:02:00,65.0,62.0,29.96,SE,127,2.0,7.0,90,0.00,,,0.00,,2013-06-09 12:02:00,
2013-06-09 08:12:00,65.0,62.0,29.96,SE,127,2.0,7.0,90,0.00,,,0.00,,2013-06-09 12:12:00,
2013-06-09 08:22:00,66.0,62.0,29.96,ESE,121,3.0,5.0,88,0.00,,,0.00,,2013-06-09 12:22:00,
2013-06-09 08:32:00,66.0,62.0,29.96,ESE,117,1.0,4.0,88,0.00,,,0.00,,2013-06-09 12:32:00,
2013-06-09 08:42:00,66.0,62.0,29.96,ESE,117,1.0,4.0,88,0.00,,,0.00,,2013-06-09 12:42:00,
2013-06-09 08:52:00,66.0,62.0,29.96,SE,134,2.0,7.0,87,0.00,,,0.00,,2013-06-09 12:52:00,
2013-06-09 09:02:00,67.0,63.0,29.96,SE,134,4.0,6.0,86,0.00,,,0.00,,2013-06-09 13:02:00,
2013-06-09 09:12:00,67.0,63.0,29.96,SE,134,4.0,6.0,86,0.00,,,0.00,,2013-06-09 13:12:00,
2013-06-09 09:22:00,69.0,63.0,29.95,ESE,121,4.0,7.0,82,0.00,,,0.00,,2013-06-09 13:22:00,
2013-06-09 09:32:00,70.0,63.0,29.95,ESE,109,3.0,6.0,79,0.00,,,0.00,,2013-06-09 13:32:00,
2013-06-09 09:42:00,70.0,63.0,29.95,ESE,109,3.0,6.0,79,0.00,,,0.00,,2013-06-09 13:42:00,
2013-06-09 09:52:00,70.0,63.0,29.95,SE,130,3.0,8.0,78,0.00,,,0.00,,2013-06-09 13:52:00,
2013-06-09 10:02:00,72.0,62.0,29.96,SE,133,4.0,9.0,70,0.00,,,0.00,,2013-06-09 14:02:00,
2013-06-09 10:12:00,72.0,62.0,29.96,SE,133,4.0,9.0,70,0.00,,,0.00,,2013-06-09 14:12:00,
2013-06-09 10:22:00,73.0,62.0,29.96,SSE,161,5.0,9.0,69,0.00,,,0.00,,2013-06-09 14:22:00,
2013-06-09 10:32:00,72.0,61.0,29.96,SE,125,7.0,11.0,68,0.00,,,0.00,,2013-06-09 14:32:00,
2013-06-09 10:42:00,72.0,61.0,29.96,SE,125,7.0,11.0,68,0.00,,,0.00,,2013-06-09 14:42:00,
2013-06-09 10:52:00,73.0,62.0,29.96,SSE,154,3.0,9.0,69,0.00,,,0.00,,2013-06-09 14:52:00,
2013-06-09 11:02:00,74.0,62.0,29.95,South,171,5.0,11.0,66,0.00,,,0.00,,2013-06-09 15:02:00,
2013-06-09 11:12:00,74.0,62.0,29.95,South,171,5.0,11.0,66,0.00,,,0.00,,2013-06-09 15:12:00,
2013-06-09 11:22:00,75.0,62.0,29.95,SE,127,5.0,9.0,64,0.00,,,0.00,,2013-06-09 15:22:00,
2013-06-09 11:33:00,77.0,62.0,29.95,SSE,153,5.0,9.0,59,0.00,,,0.00,,2013-06-09 15:33:00,
2013-06-09 11:43:00,77.0,62.0,29.95,SSE,153,5.0,9.0,59,0.00,,,0.00,,2013-06-09 15:43:00,
2013-06-09 11:53:00,78.0,61.0,29.94,ESE,119,6.0,9.0,56,0.00,,,0.00,,2013-06-09 15:53:00,
2013-06-09 12:03:00,78.0,62.0,29.95,SE,126,5.0,13.0,57,0.00,,,0.00,,2013-06-09 16:03:00,
2013-06-09 12:13:00,78.0,62.0,29.95,SE,126,5.0,13.0,57,0.00,,,0.00,,2013-06-09 16:13:00,
2013-06-09 12:23:00,79.0,62.0,29.94,SSW,198,6.0,10.0,56,0.00,,,0.00,,2013-06-09 16:23:00,
2013-06-09 12:33:00,80.0,61.0,29.94,SW,217,6.0,15.0,53,0.00,,,0.00,,2013-06-09 16:33:00,
2013-06-09 12:42:00,80.0,61.0,29.94,SW,217,6.0,15.0,53,0.00,,,0.00,,2013-06-09 16:42:00,
2013-06-09 12:53:00,81.0,60.0,29.93,SSE,150,7.0,12.0,49,0.00,,,0.00,,2013-06-09 16:53:00,
2013-06-09 13:02:00,81.0,58.0,29.93,SE,135,7.0,20.0,46,0.00,,,0.00,,2013-06-09 17:02:00,
2013-06-09 13:12:00,81.0,58.0,29.93,SE,135,7.0,20.0,46,0.00,,,0.00,,2013-06-09 17:12:00,
2013-06-09 13:22:00,80.0,59.0,29.92,SE,125,8.0,16.0,48,0.00,,,0.00,,2013-06-09 17:22:00,
2013-06-09 13:32:00,80.0,59.0,29.91,SSE,150,8.0,15.0,49,0.00,,,0.00,,2013-06-09 17:32:00,
2013-06-09 13:42:00,80.0,59.0,29.91,SSE,150,8.0,15.0,49,0.00,,,0.00,,2013-06-09 17:42:00,
2013-06-09 13:52:00,81.0,58.0,29.91,SSE,154,7.0,15.0,46,0.00,,,0.00,,2013-06-09 17:52:00,
2013-06-09 14:02:00,80.0,58.0,29.91,SE,138,8.0,16.0,47,0.00,,,0.00,,2013-06-09 18:02:00,
2013-06-09 14:12:00,80.0,58.0,29.91,SE,138,8.0,16.0,47,0.00,,,0.00,,2013-06-09 18:12:00,
2013-06-09 14:21:00,81.0,59.0,29.90,ESE,110,7.0,15.0,47,0.00,,,0.00,,2013-06-09 18:21:00,
2013-06-09 14:32:00,81.0,59.0,29.90,SE,130,9.0,15.0,47,0.00,,,0.00,,2013-06-09 18:32:00,
2013-06-09 14:42:00,81.0,59.0,29.90,SE,130,9.0,15.0,47,0.00,,,0.00,,2013-06-09 18:42:00,
2013-06-09 14:52:00,80.0,59.0,29.89,SE,146,8.0,12.0,48,0.00,,,0.00,,2013-06-09 18:52:00,
2013-06-09 15:02:00,79.0,58.0,29.89,SSE,158,8.0,15.0,49,0.00,,,0.00,,2013-06-09 19:02:00,
2013-06-09 15:12:00,79.0,58.0,29.89,SSE,158,8.0,15.0,49,0.00,,,0.00,,2013-06-09 19:12:00,
2013-06-09 15:22:00,79.0,58.0,29.88,SE,133,7.0,13.0,49,0.00,,,0.00,,2013-06-09 19:22:00,
2013-06-09 15:32:00,79.0,59.0,29.88,East,93,6.0,17.0,51,0.00,,,0.00,,2013-06-09 19:32:00,
2013-06-09 15:42:00,79.0,59.0,29.88,East,93,6.0,17.0,51,0.00,,,0.00,,2013-06-09 19:42:00,
2013-06-09 15:52:00,79.0,59.0,29.87,South,184,6.0,12.0,51,0.00,,,0.00,,2013-06-09 19:52:00,
2013-06-09 16:02:00,78.0,61.0,29.86,SSE,148,11.0,22.0,56,0.00,,,0.00,,2013-06-09 20:02:00,
2013-06-09 16:12:00,78.0,61.0,29.86,SSE,148,11.0,22.0,56,0.00,,,0.00,,2013-06-09 20:12:00,
2013-06-09 16:22:00,78.0,61.0,29.85,SE,135,8.0,15.0,56,0.00,,,0.00,,2013-06-09 20:22:00,
2013-06-09 16:32:00,78.0,61.0,29.85,SE,132,9.0,17.0,56,0.00,,,0.00,,2013-06-09 20:32:00,
2013-06-09 16:42:00,78.0,61.0,29.85,SE,132,9.0,17.0,56,0.00,,,0.00,,2013-06-09 20:42:00,
2013-06-09 16:52:00,77.0,62.0,29.85,ESE,119,10.0,18.0,59,0.00,,,0.00,,2013-06-09 20:52:00,
2013-06-09 17:02:00,76.0,62.0,29.85,SE,128,9.0,16.0,62,0.00,,,0.00,,2013-06-09 21:02:00,
2013-06-09 17:12:00,75.0,62.0,29.85,East,86,8.0,14.0,65,0.00,,,0.00,,2013-06-09 21:12:00,
2013-06-09 17:22:00,75.0,62.0,29.85,East,86,8.0,14.0,65,0.00,,,0.00,,2013-06-09 21:22:00,
2013-06-09 17:33:00,75.0,63.0,29.85,SSE,163,7.0,15.0,67,0.00,,,0.00,,2013-06-09 21:33:00,
2013-06-09 17:43:00,75.0,63.0,29.85,SSE,163,7.0,15.0,67,0.00,,,0.00,,2013-06-09 21:43:00,
2013-06-09 17:53:00,75.0,63.0,29.85,SSE,155,9.0,14.0,67,0.00,,,0.00,,2013-06-09 21:53:00,
2013-06-09 18:02:00,75.0,63.0,29.84,ESE,115,4.0,11.0,67,0.00,,,0.00,,2013-06-09 22:02:00,
2013-06-09 18:13:00,74.0,63.0,29.83,ESE,112,6.0,10.0,68,0.00,,,0.00,,2013-06-09 22:13:00,
2013-06-09 18:23:00,74.0,63.0,29.83,ESE,112,6.0,10.0,68,0.00,,,0.00,,2013-06-09 22:23:00,
2013-06-09 18:33:00,74.0,64.0,29.83,SE,141,5.0,11.0,71,0.00,,,0.00,,2013-06-09 22:33:00,
2013-06-09 18:42:00,74.0,64.0,29.83,SE,141,5.0,11.0,71,0.00,,,0.00,,2013-06-09 22:42:00,
2013-06-09 18:52:00,73.0,63.0,29.83,ESE,108,7.0,12.0,72,0.00,,,0.00,,2013-06-09 22:52:00,
2013-06-09 19:02:00,73.0,64.0,29.83,SE,130,5.0,10.0,74,0.00,,,0.00,,2013-06-09 23:02:00,
2013-06-09 19:12:00,73.0,65.0,29.82,ESE,123,7.0,14.0,75,0.00,,,0.00,,2013-06-09 23:12:00,
2013-06-09 19:22:00,73.0,65.0,29.82,ESE,123,7.0,14.0,75,0.00,,,0.00,,2013-06-09 23:22:00,
2013-06-09 19:32:00,73.0,65.0,29.82,ESE,121,8.0,13.0,76,0.00,,,0.00,,2013-06-09 23:32:00,
2013-06-09 19:42:00,73.0,65.0,29.82,ESE,121,8.0,13.0,76,0.00,,,0.00,,2013-06-09 23:42:00,
2013-06-09 19:52:00,72.0,65.0,29.81,SSE,147,4.0,8.0,78,0.00,,,0.00,,2013-06-09 23:52:00,
2013-06-09 20:02:00,72.0,65.0,29.81,SE,136,6.0,10.0,79,0.00,,,0.00,,2013-06-10 00:02:00,
2013-06-09 20:12:00,72.0,65.0,29.81,SE,136,6.0,10.0,79,0.00,,,0.00,,2013-06-10 00:12:00,
2013-06-09 20:22:00,72.0,65.0,29.81,ESE,109,4.0,9.0,80,0.00,,,0.00,,2013-06-10 00:22:00,
2013-06-09 20:32:00,72.0,65.0,29.81,ESE,106,3.0,7.0,80,0.00,,,0.00,,2013-06-10 00:32:00,
2013-06-09 20:42:00,72.0,65.0,29.81,ESE,106,3.0,7.0,80,0.00,,,0.00,,2013-06-10 00:42:00,
2013-06-09 20:52:00,72.0,67.0,29.81,ESE,118,2.0,3.0,83,0.00,,,0.00,,2013-06-10 00:52:00,
2013-06-09 21:02:00,71.0,67.0,29.80,ESE,108,1.0,2.0,87,0.08,,,0.08,,2013-06-10 01:02:00,
2013-06-09 21:12:00,71.0,67.0,29.80,ESE,108,1.0,2.0,87,0.08,,,0.08,,2013-06-10 01:12:00,
2013-06-09 21:22:00,69.0,67.0,29.79,North,5,1.0,4.0,92,0.12,,,0.12,,2013-06-10 01:22:00,
2013-06-09 21:32:00,69.0,67.0,29.79,ENE,74,1.0,4.0,92,0.12,,,0.12,,2013-06-10 01:32:00,
2013-06-09 21:43:00,69.0,67.0,29.79,ENE,74,1.0,4.0,92,0.12,,,0.12,,2013-06-10 01:43:00,
2013-06-09 21:52:00,69.0,67.0,29.79,East,96,4.0,7.0,92,0.12,,,0.12,,2013-06-10 01:52:00,
2013-06-09 22:02:00,69.0,66.0,29.78,East,88,5.0,8.0,91,0.04,,,0.12,,2013-06-10 02:02:00,
2013-06-09 22:12:00,69.0,66.0,29.78,East,88,5.0,8.0,91,0.04,,,0.12,,2013-06-10 02:12:00,
2013-06-09 22:22:00,69.0,66.0,29.78,SE,138,4.0,9.0,91,0.00,,,0.12,,2013-06-10 02:22:00,
2013-06-09 22:32:00,69.0,66.0,29.77,SE,134,6.0,11.0,91,0.00,,,0.12,,2013-06-10 02:32:00,
2013-06-09 22:42:00,69.0,66.0,29.77,SE,134,6.0,11.0,91,0.00,,,0.12,,2013-06-10 02:42:00,
2013-06-09 22:52:00,70.0,67.0,29.78,ESE,116,7.0,11.0,89,0.00,,,0.12,,2013-06-10 02:52:00,
2013-06-09 23:02:00,70.0,66.0,29.78,SE,126,8.0,13.0,88,0.00,,,0.12,,2013-06-10 03:02:00,
2013-06-09 23:12:00,70.0,66.0,29.78,SE,126,8.0,13.0,88,0.00,,,0.12,,2013-06-10 03:12:00,
2013-06-09 23:22:00,70.0,66.0,29.78,SE,139,6.0,11.0,88,0.00,,,0.12,,2013-06-10 03:22:00,
2013-06-09 23:33:00,70.0,66.0,29.77,SE,130,8.0,13.0,87,0.00,,,0.12,,2013-06-10 03:33:00,
2013-06-09 23:43:00,70.0,66.0,29.77,SE,130,8.0,13.0,87,0.00,,,0.12,,2013-06-10 03:43:00,
2013-06-09 23:53:00,70.0,66.0,29.78,SE,124,6.0,15.0,87,0.00,,,0.12,,2013-06-10 03:53:00,